SQ9SMC-13 Weather Reports


Display with metric or nautical units.
time (UTC)temp
F
wind
direction
speed
MPH
gust
MPH
rain 1hr
in
rain 24hr
in
rain mn
in
humidity
%
barometer
mb
20260508044003 47 184 3.0 5.0 0.00 0.00 0.01 99 1018.5
20260508043502 47 174 0.0 3.0 0.00 0.00 0.01 99 1018.5
20260508043006 47 179 0.0 2.0 0.00 0.00 0.01 99 1018.5
20260508042503 47 225 4.0 6.0 0.00 0.00 0.01 99 1018.4
20260508042003 47 231 1.0 2.0 0.00 0.00 0.01 99 1018.3
20260508041504 47 192 2.0 2.0 0.00 0.00 0.01 99 1018.4
20260508041004 47 117 1.0 2.0 0.00 0.00 0.01 99 1018.3
20260508040504 47 114 1.0 2.0 0.00 0.00 0.01 99 1018.3
20260508040005 47 185 0.0 1.0 0.00 0.00 0.01 99 1018.2
20260508035502 47 113 0.0 2.0 0.00 0.00 0.01 99 1018.1
20260508035003 47 201 1.0 1.0 0.00 0.00 0.01 99 1018.1
20260508034504 47 176 2.0 3.0 0.00 0.00 0.01 99 1018.1
20260508034003 47 193 0.0 2.0 0.00 0.00 0.01 99 1018.1
20260508033503 47 181 1.0 2.0 0.00 0.00 0.01 99 1018.2
20260508033004 47 132 1.0 5.0 0.00 0.00 0.01 99 1017.8
20260508032503 47 182 1.0 3.0 0.00 0.00 0.01 99 1017.8
20260508032006 47 178 1.0 6.0 0.00 0.00 0.01 99 1017.8
20260508031503 47 172 3.0 3.0 0.00 0.00 0.01 99 1018.0
20260508031004 48 126 0.0 1.0 0.00 0.00 0.01 99 1017.9
20260508030504 48 228 0.0 1.0 0.00 0.00 0.01 99 1017.8
20260508030003 48 184 3.0 3.0 0.00 0.00 0.01 99 1017.8
20260508025504 48 211 0.0 2.0 0.00 0.00 0.01 99 1017.8
20260508025002 48 209 1.0 3.0 0.00 0.00 0.01 99 1017.6
20260508024502 48 126 3.0 3.0 0.00 0.00 0.01 99 1017.7
20260508024002 48 166 0.0 2.0 0.00 0.00 0.01 99 1017.8
20260508023504 48 124 1.0 5.0 0.00 0.00 0.01 99 1017.7
20260508023004 48 213 3.0 3.0 0.00 0.00 0.01 99 1017.7
20260508022005 48 196 2.0 5.0 0.00 0.00 0.01 99 1017.7
20260508021503 48 155 1.0 2.0 0.00 0.00 0.01 99 1017.6
20260508021002 48 244 3.0 3.0 0.00 0.00 0.01 99 1017.7
20260508020004 48 195 0.0 1.0 0.00 0.00 0.01 99 1017.5
20260508015003 48 148 1.0 3.0 0.00 0.00 0.01 99 1017.5
20260508014504 48 150 2.0 6.0 0.00 0.00 0.01 99 1017.4
20260508014006 48 186 3.0 6.0 0.00 0.00 0.01 99 1017.3
20260508013504 48 176 3.0 5.0 0.00 0.00 0.01 99 1017.4
20260508013005 48 136 3.0 5.0 0.00 0.00 0.01 99 1017.3
20260508012503 49 185 0.0 2.0 0.00 0.00 0.01 99 1017.4
20260508012004 49 148 4.0 5.0 0.00 0.00 0.01 99 1017.4
20260508011503 49 148 3.0 5.0 0.00 0.00 0.01 99 1017.4
20260508011004 49 113 1.0 8.0 0.00 0.00 0.01 99 1017.4
20260508010504 49 180 1.0 2.0 0.00 0.00 0.01 99 1017.5
20260508010005 49 170 0.0 0.0 0.00 0.00 0.01 99 1017.4
20260508005503 49 61 0.0 2.0 0.00 0.00 0.01 99 1017.5
20260508005005 49 187 2.0 5.0 0.00 0.00 0.01 99 1017.3
20260508004503 49 150 2.0 2.0 0.00 0.00 0.01 99 1017.3
20260508004004 49 129 1.0 2.0 0.00 0.00 0.01 99 1017.2
20260508003503 49 105 2.0 3.0 0.00 0.00 0.01 99 1017.3
20260508003002 49 133 0.0 0.0 0.00 0.00 0.01 99 1017.3
20260508002503 49 149 0.0 1.0 0.00 0.00 0.01 99 1017.3
20260508001505 49 80 1.0 1.0 0.00 0.00 0.01 99 1017.3
20260508001003 49 84 1.0 3.0 0.00 0.00 0.01 99 1017.4
20260508000504 49 126 0.0 1.0 0.00 0.00 0.01 99 1017.3
20260508000005 49 152 0.0 2.0 0.00 0.00 0.01 99 1017.4
20260507235504 50 146 1.0 1.0 0.00 0.00 0.01 99 1017.4
20260507235003 50 135 2.0 3.0 0.00 0.00 0.01 99 1017.2
20260507234502 50 185 0.0 1.0 0.00 0.00 0.01 99 1017.4
20260507234005 50 242 2.0 2.0 0.00 0.00 0.01 99 1017.1
20260507233003 50 238 2.0 3.0 0.00 0.00 0.01 99 1017.3
20260507232504 50 137 2.0 2.0 0.00 0.00 0.01 99 1017.3
20260507232004 50 139 0.0 2.0 0.00 0.00 0.01 99 1017.3
20260507231504 50 130 1.0 3.0 0.00 0.00 0.01 99 1017.5
20260507231005 50 205 1.0 2.0 0.00 0.00 0.01 99 1017.2
20260507230504 50 115 2.0 2.0 0.00 0.00 0.01 99 1017.3
20260507225503 50 154 1.0 2.0 0.01 0.00 0.01 99 1017.3
20260507225003 50 175 0.0 1.0 0.01 0.00 0.01 99 1017.4
20260507224504 50 109 1.0 2.0 0.01 0.00 0.01 99 1017.4
20260507224005 51 169 1.0 2.0 0.01 0.00 0.01 99 1017.3
20260507223504 51 129 1.0 2.0 0.01 0.00 0.01 99 1017.2
20260507223002 51 102 0.0 1.0 0.01 0.00 0.01 99 1017.1
20260507222504 51 105 2.0 3.0 0.01 0.00 0.01 98 1017.1
20260507221504 51 172 0.0 2.0 0.01 0.00 0.01 98 1017.2
20260507221005 51 140 0.0 2.0 0.01 0.00 0.01 98 1017.1
20260507220503 51 100 1.0 3.0 0.01 0.00 0.01 98 1017.1
20260507220003 51 102 1.0 1.0 0.00 0.00 0.16 98 1017.2
20260507215503 52 149 0.0 3.0 0.00 0.00 0.16 98 1017.1
20260507214502 52 182 1.0 2.0 0.00 0.00 0.16 97 1017.2
20260507214004 52 211 1.0 2.0 0.00 0.00 0.16 97 1016.9
20260507213503 52 195 0.0 1.0 0.00 0.00 0.16 97 1016.8
20260507213003 52 121 2.0 3.0 0.00 0.00 0.16 97 1016.9
20260507212502 52 191 1.0 2.0 0.00 0.00 0.16 97 1016.9
20260507211502 52 132 1.0 1.0 0.00 0.00 0.16 97 1016.9
20260507211006 52 179 2.0 2.0 0.00 0.00 0.16 97 1016.7
20260507210505 53 172 1.0 1.0 0.00 0.00 0.16 97 1016.8
20260507210003 53 202 0.0 1.0 0.00 0.00 0.16 97 1017.0
20260507205506 53 213 0.0 0.0 0.00 0.00 0.16 97 1016.8
20260507205002 53 214 0.0 1.0 0.00 0.00 0.16 97 1016.7
20260507204003 53 244 0.0 1.0 0.00 0.00 0.16 97 1016.6
20260507203503 53 36 0.0 1.0 0.00 0.00 0.16 98 1016.5
20260507203004 53 128 1.0 2.0 0.00 0.00 0.16 97 1016.5
20260507202503 53 232 0.0 1.0 0.00 0.00 0.16 98 1016.5
20260507202003 53 187 1.0 1.0 0.00 0.00 0.16 98 1016.6
20260507201503 53 135 1.0 3.0 0.00 0.00 0.16 98 1016.6
20260507201003 53 217 0.0 2.0 0.00 0.00 0.16 98 1016.6
20260507200503 53 113 1.0 2.0 0.00 0.00 0.16 98 1016.5
20260507200002 53 135 1.0 1.0 0.00 0.00 0.16 98 1016.4
20260507195502 54 242 1.0 2.0 0.00 0.00 0.16 98 1016.2
20260507195002 54 182 1.0 5.0 0.00 0.00 0.16 98 1016.2
20260507194503 54 215 3.0 5.0 0.00 0.00 0.16 98 1016.3
20260507194003 54 185 1.0 3.0 0.00 0.00 0.16 98 1016.2
20260507193504 54 232 0.0 2.0 0.00 0.00 0.16 98 1016.2
20260507192502 54 231 0.0 1.0 0.01 0.00 0.16 98 1016.1
20260507192004 54 120 1.0 2.0 0.02 0.00 0.16 98 1016.1
20260507191502 54 156 1.0 3.0 0.02 0.00 0.16 98 1016.0
20260507191004 55 91 0.0 1.0 0.02 0.00 0.16 98 1015.9
20260507190503 55 204 1.0 6.0 0.02 0.00 0.16 98 1015.5
20260507190005 55 189 0.0 1.0 0.02 0.00 0.16 98 1015.9
20260507185002 55 137 0.0 0.0 0.03 0.00 0.16 98 1015.7
20260507184504 55 137 0.0 0.0 0.04 0.00 0.16 98 1015.4
20260507184003 55 141 0.0 0.0 0.06 0.00 0.16 98 1015.3
20260507183502 55 238 0.0 0.0 0.07 0.00 0.16 97 1015.1
20260507183004 55 238 0.0 0.0 0.06 0.00 0.15 97 1015.3
20260507182504 55 238 0.0 0.0 0.05 0.00 0.14 96 1015.3
20260507182005 56 231 0.0 0.0 0.05 0.00 0.14 96 1014.8
20260507181504 56 210 0.0 1.0 0.05 0.00 0.14 96 1014.9
20260507181002 56 170 0.0 1.0 0.05 0.00 0.14 96 1014.8
20260507180505 56 263 0.0 0.0 0.05 0.00 0.14 96 1014.6
20260507180004 56 259 0.0 1.0 0.05 0.00 0.14 95 1014.6
20260507175502 56 234 0.0 2.0 0.05 0.00 0.14 95 1015.0
20260507175003 57 193 0.0 0.0 0.03 0.00 0.12 95 1014.8
20260507174505 57 72 1.0 1.0 0.02 0.00 0.11 94 1014.9
20260507174004 57 151 0.0 0.0 0.01 0.00 0.10 94 1014.7
20260507173503 57 157 0.0 0.0 0.00 0.00 0.09 93 1014.9
20260507173004 57 196 0.0 1.0 0.00 0.00 0.09 93 1014.6
20260507172502 57 231 0.0 1.0 0.00 0.00 0.09 93 1014.6
20260507172003 57 206 0.0 2.0 0.00 0.00 0.09 93 1014.3
20260507171503 57 259 1.0 2.0 0.00 0.00 0.09 93 1014.2
20260507171005 57 158 0.0 2.0 0.00 0.00 0.09 93 1014.3
20260507170503 57 126 0.0 1.0 0.00 0.00 0.09 92 1014.1
20260507170004 57 242 0.0 0.0 0.00 0.00 0.09 92 1014.3
20260507165505 57 232 0.0 1.0 0.00 0.00 0.09 91 1014.3
20260507165003 58 223 0.0 0.0 0.00 0.00 0.09 91 1014.0
20260507164502 58 226 0.0 1.0 0.00 0.00 0.09 91 1014.0
20260507164003 58 234 2.0 2.0 0.00 0.00 0.09 90 1013.9
20260507163505 58 225 0.0 1.0 0.00 0.00 0.09 90 1014.0
20260507163003 58 299 1.0 2.0 0.00 0.00 0.09 91 1013.9
20260507162502 58 222 2.0 2.0 0.00 0.00 0.09 90 1013.7
20260507162002 58 269 1.0 2.0 0.00 0.00 0.09 90 1013.6
20260507161505 58 179 0.0 1.0 0.00 0.00 0.09 90 1013.7
20260507161003 58 250 1.0 3.0 0.00 0.00 0.09 90 1013.6
20260507160503 58 265 2.0 2.0 0.00 0.00 0.09 91 1014.0
20260507160003 58 63 1.0 1.0 0.00 0.00 0.09 92 1013.9
20260507155502 58 351 3.0 3.0 0.00 0.00 0.09 92 1013.9
20260507155004 58 292 0.0 2.0 0.00 0.00 0.09 91 1013.9
20260507154503 58 243 0.0 3.0 0.00 0.00 0.09 91 1013.8
20260507154003 59 319 1.0 2.0 0.00 0.00 0.09 91 1013.7
20260507153504 59 261 2.0 3.0 0.00 0.00 0.09 90 1013.4
20260507153003 59 90 0.0 2.0 0.00 0.00 0.09 89 1013.5
20260507152502 59 202 1.0 5.0 0.00 0.00 0.09 89 1013.6
20260507152006 59 300 2.0 6.0 0.00 0.00 0.09 88 1013.5
20260507151504 59 272 1.0 3.0 0.00 0.00 0.09 88 1013.4
20260507151002 59 218 0.0 2.0 0.00 0.00 0.09 89 1013.3
20260507150503 59 260 2.0 5.0 0.01 0.00 0.09 88 1013.4
20260507150003 59 212 2.0 6.0 0.02 0.00 0.09 88 1013.4
20260507145503 59 230 1.0 5.0 0.06 0.00 0.09 89 1013.3
20260507145003 59 208 3.0 5.0 0.09 0.00 0.09 89 1013.4
20260507144503 59 236 1.0 5.0 0.09 0.00 0.09 89 1013.4
20260507144002 59 284 1.0 5.0 0.09 0.00 0.09 88 1013.2
20260507143502 59 255 2.0 3.0 0.09 0.00 0.09 88 1013.1
20260507143004 59 163 3.0 5.0 0.09 0.00 0.09 88 1013.1
20260507142504 59 189 0.0 2.0 0.09 0.00 0.09 90 1013.0
20260507142004 59 186 2.0 8.0 0.09 0.00 0.09 89 1013.1
20260507141506 59 213 3.0 5.0 0.09 0.00 0.09 90 1013.2
20260507141008 59 157 4.0 6.0 0.09 0.00 0.09 90 1012.9
20260507140503 59 187 0.0 2.0 0.08 0.00 0.08 90 1013.0
20260507140003 60 181 2.0 6.0 0.04 0.00 0.04 87 1013.1
20260507135503 63 152 3.0 9.0 0.02 0.00 0.02 82 1012.9
20260507135003 67 216 1.0 7.0 0.00 0.00 0.00 66 1012.8
20260507134504 68 347 0.0 2.0 0.00 0.00 0.00 63 1012.7
20260507134002 68 100 1.0 2.0 0.00 0.00 0.00 60 1012.6
20260507133503 68 141 1.0 1.0 0.00 0.00 0.00 61 1012.6
20260507133002 68 65 1.0 5.0 0.00 0.00 0.00 61 1012.6
20260507132503 69 9 2.0 6.0 0.00 0.00 0.00 60 1012.5
20260507132003 69 27 4.0 6.0 0.00 0.00 0.00 58 1012.6
20260507131503 70 321 1.0 7.0 0.00 0.00 0.00 56 1012.7
20260507131004 70 31 2.0 3.0 0.00 0.00 0.00 57 1012.6
20260507130506 70 342 1.0 7.0 0.00 0.00 0.00 55 1012.8
20260507130004 70 53 2.0 6.0 0.00 0.00 0.00 54 1012.5
20260507125504 71 56 1.0 6.0 0.00 0.00 0.00 54 1012.8
20260507125002 68 23 0.0 2.0 0.00 0.00 0.00 62 1013.0
20260507124504 67 349 1.0 3.0 0.00 0.00 0.00 67 1013.0
20260507124003 66 325 1.0 2.0 0.00 0.00 0.00 70 1012.9
20260507123502 65 352 2.0 2.0 0.00 0.00 0.00 73 1012.9
20260507123003 65 269 2.0 5.0 0.00 0.00 0.00 74 1013.0
20260507122502 66 311 0.0 1.0 0.00 0.00 0.00 71 1013.1
20260507122004 65 331 0.0 2.0 0.00 0.00 0.00 73 1013.0
20260507121503 65 30 1.0 2.0 0.00 0.00 0.00 73 1013.0
20260507121003 66 345 1.0 2.0 0.00 0.00 0.00 69 1013.0
20260507120504 66 4 0.0 2.0 0.00 0.00 0.00 65 1012.9
20260507120004 66 292 0.0 2.0 0.00 0.00 0.00 67 1013.2
20260507115503 67 178 0.0 1.0 0.00 0.00 0.00 66 1013.4
20260507115002 67 248 0.0 1.0 0.00 0.00 0.00 65 1013.1
20260507114503 67 228 0.0 1.0 0.00 0.00 0.00 64 1013.1
20260507114006 69 32 1.0 2.0 0.00 0.00 0.00 60 1013.0
20260507113504 71 232 3.0 3.0 0.00 0.00 0.00 55 1012.8
20260507113004 70 274 1.0 1.0 0.00 0.00 0.00 55 1013.0
20260507112504 69 233 0.0 1.0 0.00 0.00 0.00 58 1012.9
20260507112003 69 234 0.0 3.0 0.00 0.00 0.00 60 1012.9
20260507111506 68 238 1.0 1.0 0.00 0.00 0.00 59 1013.0
20260507111004 68 123 1.0 2.0 0.00 0.00 0.00 62 1013.2
20260507110504 68 68 0.0 1.0 0.00 0.00 0.00 62 1013.1
20260507110003 67 347 0.0 1.0 0.00 0.00 0.00 62 1013.2
20260507105504 67 32 0.0 1.0 0.00 0.00 0.00 62 1013.0
20260507105004 66 26 0.0 1.0 0.00 0.00 0.00 63 1013.1
20260507104504 67 179 1.0 3.0 0.00 0.00 0.00 66 1012.9
20260507104006 66 205 1.0 3.0 0.00 0.00 0.00 65 1013.1
20260507103503 66 105 0.0 1.0 0.00 0.00 0.00 66 1012.8
20260507103004 66 128 2.0 3.0 0.00 0.00 0.00 67 1013.1
20260507102504 66 5 1.0 2.0 0.00 0.00 0.00 67 1012.8
20260507102004 67 202 2.0 3.0 0.00 0.00 0.00 64 1013.0
20260507101502 66 119 0.0 1.0 0.00 0.00 0.00 67 1012.8
20260507101003 66 116 1.0 2.0 0.00 0.00 0.00 67 1012.8
20260507100503 66 55 2.0 5.0 0.00 0.00 0.00 67 1012.9
20260507100004 66 143 1.0 3.0 0.00 0.00 0.00 67 1012.8
20260507095502 65 86 3.0 5.0 0.00 0.00 0.00 68 1012.7
20260507095002 65 114 1.0 2.0 0.00 0.00 0.00 68 1012.6
20260507094503 66 119 0.0 3.0 0.00 0.00 0.00 68 1012.7
20260507094003 66 101 3.0 5.0 0.00 0.00 0.00 68 1012.7
20260507093504 65 0 1.0 2.0 0.00 0.00 0.00 68 1012.7
20260507093004 65 71 1.0 3.0 0.00 0.00 0.00 71 1012.7
20260507092503 65 78 2.0 3.0 0.00 0.00 0.00 70 1012.5
20260507092002 65 111 1.0 3.0 0.00 0.00 0.00 70 1012.6
20260507091504 64 179 2.0 2.0 0.00 0.00 0.00 72 1012.6
20260507091002 64 146 2.0 3.0 0.00 0.00 0.00 74 1012.6
20260507090503 64 84 1.0 3.0 0.00 0.00 0.00 74 1012.6
20260507090002 63 243 2.0 2.0 0.00 0.00 0.00 76 1012.3
20260507085502 63 114 4.0 5.0 0.00 0.00 0.00 76 1012.5
20260507085003 62 49 4.0 5.0 0.00 0.00 0.00 76 1012.3
20260507084502 62 134 1.0 6.0 0.00 0.00 0.00 77 1012.3
20260507084003 62 66 2.0 3.0 0.00 0.00 0.00 78 1012.1
20260507083504 62 187 3.0 6.0 0.00 0.00 0.00 78 1012.1
20260507083005 62 133 3.0 8.0 0.00 0.00 0.00 79 1011.9
20260507082503 62 92 1.0 2.0 0.00 0.00 0.00 80 1011.9
20260507082003 62 113 2.0 6.0 0.00 0.00 0.00 79 1011.9
20260507081503 62 122 3.0 3.0 0.00 0.00 0.00 79 1011.9
20260507081004 62 189 2.0 5.0 0.00 0.00 0.00 79 1011.9
20260507080504 62 112 2.0 3.0 0.00 0.00 0.00 79 1011.9
20260507080005 62 59 3.0 6.0 0.00 0.00 0.00 78 1011.8
20260507075504 62 131 1.0 2.0 0.00 0.00 0.00 81 1011.9
20260507075003 61 65 3.0 5.0 0.00 0.00 0.00 80 1011.7
20260507074504 61 58 2.0 2.0 0.00 0.00 0.00 81 1011.6
20260507074003 61 130 2.0 3.0 0.00 0.00 0.00 82 1011.5
20260507073504 61 138 3.0 5.0 0.00 0.00 0.00 82 1011.5
20260507073002 60 127 0.0 5.0 0.00 0.00 0.00 83 1011.4
20260507072503 61 109 3.0 7.0 0.00 0.00 0.00 81 1011.3
20260507072004 61 112 1.0 3.0 0.00 0.00 0.00 81 1011.2
20260507071504 62 91 4.0 5.0 0.00 0.00 0.00 80 1011.2
20260507071004 61 73 1.0 3.0 0.00 0.00 0.00 81 1011.1
20260507070504 61 65 2.0 7.0 0.00 0.00 0.00 81 1011.2
20260507070008 61 67 1.0 5.0 0.00 0.00 0.00 80 1011.0
20260507065503 62 96 2.0 5.0 0.00 0.00 0.00 79 1010.9
20260507065002 62 161 3.0 5.0 0.00 0.00 0.00 79 1010.9
20260507064504 62 340 3.0 6.0 0.00 0.00 0.00 78 1010.8
20260507064004 62 65 2.0 2.0 0.00 0.00 0.00 77 1010.6
20260507063503 62 71 3.0 7.0 0.00 0.00 0.00 78 1010.7
20260507063003 61 57 2.0 3.0 0.00 0.00 0.00 79 1010.7
20260507062504 61 31 2.0 5.0 0.00 0.00 0.00 80 1010.6
20260507062002 61 75 1.0 3.0 0.00 0.00 0.00 81 1010.6
20260507061505 61 9 1.0 6.0 0.00 0.00 0.00 81 1010.6
20260507061005 61 119 1.0 1.0 0.00 0.00 0.00 82 1010.2
20260507060502 61 137 0.0 0.0 0.00 0.00 0.00 82 1010.4
20260507060003 61 140 1.0 1.0 0.00 0.00 0.00 83 1010.4
20260507055503 61 137 0.0 1.0 0.00 0.00 0.00 82 1010.3
20260507055004 60 143 0.0 0.0 0.00 0.00 0.00 84 1010.3
20260507054504 60 200 0.0 1.0 0.00 0.00 0.00 85 1010.3
20260507054004 59 295 0.0 1.0 0.00 0.00 0.00 85 1010.1
20260507053503 59 272 0.0 1.0 0.00 0.00 0.00 85 1010.2
20260507053003 59 263 0.0 0.0 0.00 0.00 0.00 86 1010.2
20260507052503 59 257 0.0 1.0 0.00 0.00 0.00 87 1010.0
20260507052004 59 234 0.0 0.0 0.00 0.00 0.00 88 1010.1
20260507051504 58 257 0.0 1.0 0.00 0.00 0.00 89 1010.0
20260507051003 58 279 0.0 1.0 0.00 0.00 0.00 90 1010.0
20260507050505 57 248 0.0 2.0 0.00 0.00 0.00 90 1010.1
20260507050004 57 251 0.0 2.0 0.00 0.00 0.00 90 1009.9
20260507045504 57 222 0.0 0.0 0.00 0.00 0.00 91 1009.8
20260507045003 57 222 0.0 0.0 0.00 0.00 0.00 91 1010.0
20260507044502 57 241 0.0 1.0 0.00 0.00 0.00 91 1009.9